[[{"header":{"parameterUnit":"m.s-1","parameterCategory":2,"la1":30.2991,"la2":30.254,"lo1":-89.0895,"lo2":-89.0444,"dy":0.0017,"dx":0.0017,"nx":28,"ny":28,"refTime":"2024-02-06T03:00:00:Z","depth":"0","parameterNumber":2,"parameterNumberName":"U-component_of_CURRENTS"},"data":[0,0,0,0,0,0,0,0,0,0,0,0,0,0,0,0,0,0,0,0,0,0,0,0,0,0,0,0,0,0,0,0,0,0,0,0,0,0,0,0,0,0,0,0,0,0,0,0,0,0,0,0,0,0,0,0,0,0,-0.1994,-0.1994,0,-0.2019,-0.2019,-0.2019,-0.2007,-0.2007,-0.2006,-0.2006,-0.1983,-0.1983,-0.1982,0,0,0,0,0,0,0,0,0,0,0,0,0,-0.1894,-0.1896,-0.1994,-0.1994,-0.1995,-0.2019,-0.2019,-0.2019,-0.2007,-0.2007,-0.2006,-0.2006,-0.1983,-0.1983,-0.1982,0,0,0,0,0,0,0,0,0,0,0,0,0,-0.1927,-0.1896,-0.1994,-0.1994,-0.1994,-0.2019,-0.2019,-0.2019,-0.2007,-0.2006,-0.2006,-0.2005,-0.1983,-0.1983,-0.1982,-0.1992,0,0,-0.1981,-0.1981,0,0,0,0,0,0,0,0,-0.1926,-0.1931,-0.1993,-0.1994,-0.1994,-0.2012,-0.1975,-0.2008,-0.2007,-0.1999,-0.2006,-0.2005,-0.199,-0.1989,-0.1992,-0.1991,-0.199,-0.1981,-0.1981,-0.1981,-0.1981,0,0,0,0,0,0,0,-0.1923,-0.1929,-0.2001,-0.1994,-0.1995,-0.1979,-0.1983,-0.1981,-0.1995,-0.2,-0.2,-0.2007,-0.199,-0.1992,-0.1991,-0.1989,-0.1981,-0.1981,-0.1981,-0.198,-0.2002,-0.2003,0,0,0,0,0,0,-0.1929,-0.1928,-0.2,-0.2002,-0.1961,-0.1981,-0.1986,-0.2004,-0.1996,-0.1995,-0.2008,-0.2007,-0.1993,-0.1992,-0.199,-0.2012,-0.1981,-0.198,-0.198,-0.2001,-0.2002,-0.2003,0,0,0,0,0,0,-0.1927,-0.1936,-0.1999,-0.1966,-0.1974,-0.1984,-0.2005,-0.2005,-0.2008,-0.2003,-0.2,-0.201,-0.1993,-0.1991,-0.1993,-0.201,-0.198,-0.198,-0.2001,-0.2002,-0.2003,-0.2047,0,0,0,0,0,0,-0.1924,-0.1935,-0.1942,-0.1968,-0.1976,-0.2016,-0.2006,-0.2006,-0.2015,-0.2013,-0.2004,-0.2001,-0.1992,-0.1994,-0.1993,-0.2009,-0.198,-0.2,-0.2001,-0.2003,-0.2045,-0.205,-0.2054,0,0,0,0,0,-0.1921,-0.1936,-0.1942,-0.1951,-0.1989,-0.2016,-0.2019,-0.2021,-0.2015,-0.202,-0.2015,-0.2002,-0.2003,-0.1995,-0.1993,-0.2009,-0.1999,-0.2001,-0.2002,-0.2043,-0.2049,-0.2054,0,0,0,0,0,0,-0.1888,-0.1938,-0.1945,-0.1972,-0.1993,-0.2015,-0.2019,-0.2025,-0.2026,-0.202,-0.2011,-0.2008,-0.2018,-0.2008,-0.1999,-0.202,-0.1999,-0.2001,-0.203,-0.2036,-0.2041,-0.2052,-0.1979,0,0,0,0,0,-0.1888,-0.1916,-0.1953,-0.1971,-0.1985,-0.2002,-0.2011,-0.2018,-0.2027,-0.2027,-0.2022,-0.2019,-0.2025,-0.2025,-0.2024,-0.2035,-0.2045,-0.2045,-0.205,-0.2054,-0.2063,-0.212,-0.2131,-0.2009,-0.2009,-0.2009,0,0,-0.1879,-0.1909,-0.1923,-0.1966,-0.1981,-0.2006,-0.2005,-0.2024,-0.204,-0.2024,-0.2033,-0.2033,-0.2032,-0.2046,-0.2049,-0.2039,-0.2087,-0.2056,-0.206,-0.2066,-0.2123,-0.2135,-0.2146,-0.201,-0.201,-0.201,0,0,-0.188,-0.1904,-0.193,-0.1955,-0.1988,-0.2002,-0.2011,-0.2037,-0.2042,-0.2057,-0.2054,-0.2073,-0.2065,-0.2083,-0.2088,-0.212,-0.2111,-0.2109,-0.2143,-0.2198,-0.2209,-0.2219,-0.2221,-0.2231,-0.2112,-0.2112,-0.2112,0,-0.1863,-0.19,-0.1937,-0.1968,-0.198,-0.2004,-0.2022,-0.2043,-0.2063,-0.2084,-0.2061,-0.2103,-0.2091,-0.2143,-0.2141,-0.2134,-0.2141,-0.2121,-0.2206,-0.2216,-0.2226,-0.2226,-0.2236,-0.2114,-0.2114,-0.2113,-0.2113,0,-0.1885,-0.1912,-0.1927,-0.1976,-0.1998,-0.2013,-0.2053,-0.2075,-0.2081,-0.2111,-0.2157,-0.2158,-0.2189,-0.2186,-0.2164,-0.2228,-0.2201,-0.2207,-0.2195,-0.2241,-0.2237,-0.2247,-0.2117,-0.2117,-0.2116,-0.2115,0,0,-0.1841,-0.1924,-0.1926,-0.1949,-0.1996,-0.2019,-0.2058,-0.2108,-0.2164,-0.2178,-0.2242,-0.2249,-0.2268,-0.2275,-0.227,-0.2305,-0.2353,-0.2273,-0.2275,-0.2278,-0.2438,-0.2312,-0.231,-0.2375,-0.2378,-0.238,-0.2399,0,-0.1833,-0.1884,-0.1928,-0.1964,-0.1987,-0.2032,-0.2079,-0.2138,-0.2185,-0.2259,-0.2292,-0.2344,-0.2299,-0.2318,-0.2351,-0.2361,-0.2385,-0.2345,-0.2389,-0.2389,-0.2277,-0.2321,-0.2177,-0.2174,-0.2408,-0.241,-0.2411,0,-0.1833,-0.1863,-0.1896,-0.1972,-0.1989,-0.2015,-0.2102,-0.2151,-0.2273,-0.2314,-0.2387,-0.243,-0.248,-0.2438,-0.2491,-0.2464,-0.2447,-0.2449,-0.2451,-0.2329,-0.2284,-0.2171,-0.2183,-0.214,-0.2426,-0.2425,-0.2424,0,-0.1775,-0.1842,-0.1861,-0.1881,-0.1974,-0.1996,-0.2038,-0.2159,-0.2229,-0.235,-0.2425,-0.2505,-0.2539,-0.2563,-0.2537,-0.2527,-0.2586,-0.2582,-0.2456,-0.2446,-0.2329,-0.2304,-0.2311,-0.2628,-0.2628,-0.2628,-0.2628,0,-0.1745,-0.1762,-0.1834,-0.1843,-0.1874,-0.1959,-0.203,-0.2099,-0.2243,-0.2344,-0.2439,-0.2522,-0.2573,-0.2614,-0.2584,-0.2531,-0.2623,-0.2466,-0.2455,-0.2334,-0.231,-0.227,-0.2301,-0.2629,-0.2629,-0.2628,-0.2628,0,-0.1682,-0.1734,-0.1755,-0.1828,-0.1846,-0.1863,-0.1981,-0.2068,-0.2201,-0.2334,-0.2374,-0.2536,-0.2576,-0.2605,-0.2637,-0.2571,-0.2493,-0.2504,-0.2321,-0.2287,-0.211,-0.2149,-0.2179,-0.2117,-0.2384,-0.2381,-0.2379,0,-0.1655,-0.1661,-0.1708,-0.1714,-0.1732,-0.1783,-0.1843,-0.1994,-0.21,-0.2331,-0.2396,-0.2505,-0.2547,-0.2538,-0.2456,-0.2388,-0.2397,-0.2211,-0.2169,-0.2081,-0.2119,-0.216,-0.211,-0.2027,-0.2022,-0.2018,-0.2015,0,-0.1578,-0.1594,-0.1607,-0.161,-0.1643,-0.1713,-0.1806,-0.1889,-0.2099,-0.2226,-0.2381,-0.2435,-0.2431,-0.2301,-0.22,-0.2146,-0.2138,-0.212,-0.211,-0.1902,-0.1875,-0.1813,-0.2008,-0.1978,-0.1982,-0.1984,-0.1986,-0.1988,-0.15,-0.148,-0.1492,-0.1495,-0.1542,-0.1622,-0.1647,-0.1805,-0.1941,-0.2089,-0.2215,-0.2225,-0.2149,-0.1988,-0.1921,-0.1744,-0.1873,-0.1674,-0.1746,-0.1807,-0.17,-0.1774,-0.1681,-0.1683,-0.1684,-0.1686,-0.1687,0,-0.1388,-0.1384,-0.1381,-0.1392,-0.1414,-0.148,-0.1615,-0.166,-0.1766,-0.1866,-0.1927,-0.1868,-0.1705,-0.1647,-0.1486,-0.1391,-0.1375,-0.1373,-0.1419,-0.1398,-0.1514,-0.1444,-0.1198,-0.1198,-0.1198,-0.1198,-0.1198,-0.1198,-0.1324,-0.1278,-0.1282,-0.1255,-0.1276,-0.1295,-0.1343,-0.1426,-0.149,-0.1496,-0.1476,-0.15,-0.1484,-0.1511,-0.1336,-0.1248,-0.1245,-0.1198,-0.1271,-0.1361,-0.1395,-0.1428,-0.1366,-0.1108,-0.1108,-0.1058,-0.1058,-0.1058]},{"header":{"parameterUnit":"m.s-1","parameterCategory":2,"la1":30.2991,"la2":30.254,"lo1":-89.0895,"lo2":-89.0444,"dy":0.0017,"dx":0.0017,"nx":28,"ny":28,"refTime":"2024-02-06T03:00:00:Z","depth":"0","parameterNumber":3,"parameterNumberName":"V-component_of_CURRENTS"},"data":[0,0,0,0,0,0,0,0,0,0,0,0,0,0,0,0,0,0,0,0,0,0,0,0,0,0,0,0,0,0,0,0,0,0,0,0,0,0,0,0,0,0,0,0,0,0,0,0,0,0,0,0,0,0,0,0,0,0,-0.0329,-0.0328,0,-0.0236,-0.0236,-0.0235,-0.0182,-0.0181,-0.0181,-0.0181,-0.0057,-0.0054,-0.0052,0,0,0,0,0,0,0,0,0,0,0,0,0,-0.0436,-0.0435,-0.0329,-0.0328,-0.0326,-0.0237,-0.0235,-0.0234,-0.0182,-0.0181,-0.0181,-0.0181,-0.0058,-0.0055,-0.0051,0,0,0,0,0,0,0,0,0,0,0,0,0,-0.0373,-0.0434,-0.0329,-0.0288,-0.0284,-0.0237,-0.0235,-0.0234,-0.0182,-0.0181,-0.0181,-0.018,-0.006,-0.0055,-0.0051,-0.0032,0,0,-0.0037,-0.0035,0,0,0,0,0,0,0,0,-0.0376,-0.0369,-0.0296,-0.0291,-0.0286,-0.0219,-0.0228,-0.0165,-0.0182,-0.0222,-0.0181,-0.018,-0.0108,-0.01,-0.0085,-0.0027,-0.0021,-0.0037,-0.0034,-0.0032,-0.0031,0,0,0,0,0,0,0,-0.0381,-0.0372,-0.0294,-0.0294,-0.0288,-0.0266,-0.0257,-0.0216,-0.0169,-0.0218,-0.0214,-0.0202,-0.0105,-0.009,-0.0082,-0.002,-0.0037,-0.0033,-0.003,-0.0028,0.0064,0.0064,0,0,0,0,0,0,-0.0391,-0.0377,-0.0297,-0.0291,-0.0329,-0.0265,-0.0255,-0.0242,-0.017,-0.0159,-0.0202,-0.02,-0.0098,-0.0087,-0.0077,-0.0065,-0.0032,-0.0028,-0.0025,0.0065,0.0064,0.0064,0,0,0,0,0,0,-0.0394,-0.0385,-0.03,-0.0331,-0.0318,-0.0264,-0.025,-0.024,-0.0223,-0.0158,-0.0146,-0.0194,-0.0097,-0.0084,-0.0043,-0.0059,-0.0026,-0.0022,0.0065,0.0064,0.0064,-0.003,0,0,0,0,0,0,-0.0397,-0.0386,-0.0384,-0.0331,-0.0317,-0.0278,-0.025,-0.0239,-0.0215,-0.0211,-0.0147,-0.0135,-0.0096,-0.005,-0.0039,-0.0052,-0.0018,0.0065,0.0065,0.0064,-0.0027,-0.0034,-0.004,0,0,0,0,0,-0.0401,-0.0401,-0.0385,-0.0375,-0.0315,-0.0278,-0.027,-0.023,-0.0216,-0.0212,-0.0168,-0.0137,-0.0045,-0.0047,-0.0033,-0.0046,0.0065,0.0065,0.0064,-0.0024,-0.0033,-0.004,0,0,0,0,0,0,-0.0445,-0.0393,-0.0375,-0.0358,-0.0324,-0.0269,-0.0261,-0.0234,-0.0198,-0.0193,-0.0136,-0.0121,-0.0093,-0.0052,-0.0056,-0.0019,0.0014,0.0016,-0.0058,-0.0065,-0.0072,-0.0102,-0.0014,0,0,0,0,0,-0.0454,-0.0442,-0.0389,-0.0379,-0.0363,-0.0314,-0.0295,-0.0268,-0.0226,-0.021,-0.0167,-0.0121,-0.0085,-0.0062,-0.0022,0.0001,0.0052,0.0002,-0.0004,-0.001,-0.0025,0.0042,0.004,0.0062,0.0062,0.0062,0,0,-0.0471,-0.0439,-0.0434,-0.0388,-0.0358,-0.0352,-0.0302,-0.0277,-0.0278,-0.0202,-0.019,-0.014,-0.0082,-0.0061,-0.0045,-0.0029,0.0013,-0.0011,-0.0017,-0.0028,0.0041,0.0039,0.0037,0.0062,0.0062,0.0062,0,0,-0.0501,-0.0468,-0.0471,-0.0449,-0.0407,-0.0378,-0.0375,-0.0324,-0.0305,-0.028,-0.0232,-0.0193,-0.0134,-0.0101,-0.0076,-0.0091,-0.0023,-0.0076,-0.0135,-0.007,-0.0072,-0.0072,-0.0002,0.0004,-0.0081,-0.0081,-0.0081,0,-0.0524,-0.0518,-0.0468,-0.0468,-0.0462,-0.0398,-0.041,-0.0383,-0.0329,-0.032,-0.0289,-0.0207,-0.0158,-0.0133,-0.0143,-0.0108,-0.0056,-0.0114,-0.008,-0.0079,-0.0079,-0.0006,0.0002,-0.0085,-0.0085,-0.0084,-0.0084,0,-0.0556,-0.0557,-0.0558,-0.0543,-0.053,-0.0526,-0.0486,-0.0474,-0.0442,-0.0408,-0.037,-0.0294,-0.0246,-0.0225,-0.0191,-0.0168,-0.0127,-0.0096,-0.0066,-0.0087,-0.0008,0.0002,-0.0092,-0.009,-0.0089,-0.0088,0,0,-0.0593,-0.0585,-0.0587,-0.0612,-0.0571,-0.0575,-0.0573,-0.0555,-0.057,-0.0497,-0.0489,-0.0423,-0.0369,-0.0337,-0.0277,-0.0228,-0.0175,-0.0173,-0.0167,-0.0113,-0.0024,0.002,0.0036,-0.0136,-0.0135,-0.0134,0.0032,0,-0.0636,-0.0675,-0.0648,-0.0701,-0.0723,-0.068,-0.0696,-0.0673,-0.0634,-0.0609,-0.0512,-0.0473,-0.0414,-0.0386,-0.0329,-0.0213,-0.0154,-0.0222,-0.0002,0.0004,0.0037,0.0047,0.007,0.022,0.0042,0.0044,0.0045,0,-0.0674,-0.0702,-0.0757,-0.0806,-0.0811,-0.083,-0.0852,-0.0852,-0.0792,-0.0752,-0.0679,-0.0593,-0.0502,-0.0442,-0.0258,-0.0303,-0.0181,-0.0085,-0.0075,0.0001,0.0066,0.0214,0.0246,0.0416,0.0061,0.006,0.0059,0,-0.0741,-0.0783,-0.084,-0.0851,-0.0883,-0.0908,-0.0919,-0.0896,-0.0903,-0.0824,-0.0797,-0.0675,-0.0588,-0.0437,-0.0233,-0.0243,-0.0016,0.0006,0.0164,0.0169,0.0249,0.0259,0.0461,0.0135,0.0135,0.0134,0.0134,0,-0.0797,-0.0847,-0.0883,-0.0918,-0.1004,-0.0991,-0.1055,-0.1041,-0.1006,-0.1008,-0.087,-0.0815,-0.0583,-0.0418,-0.0248,-0.0004,-0.0014,0.0154,0.0213,0.0218,0.0223,0.0423,0.0482,0.014,0.0139,0.0138,0.0137,0,-0.0853,-0.087,-0.0952,-0.1011,-0.1035,-0.1095,-0.1138,-0.1183,-0.1128,-0.1112,-0.1078,-0.0897,-0.0671,-0.0434,-0.0159,-0.0012,0.0318,0.0297,0.029,0.0343,0.0619,0.067,0.0916,0.1019,0.0486,0.0488,0.0489,0,-0.0885,-0.0928,-0.1023,-0.1083,-0.111,-0.1187,-0.1244,-0.1236,-0.1261,-0.116,-0.1147,-0.0922,-0.0743,-0.0314,-0.0014,0.031,0.044,0.051,0.0486,0.0641,0.0743,0.0777,0.0847,0.0569,0.0571,0.0573,0.0574,0,-0.095,-0.0977,-0.1045,-0.1168,-0.1249,-0.134,-0.1402,-0.143,-0.1403,-0.1354,-0.1227,-0.1064,-0.0632,-0.0236,0.0188,0.0374,0.0624,0.0556,0.0729,0.0828,0.0868,0.0992,0.0456,0.059,0.0589,0.0588,0.0587,0.0586,-0.0993,-0.1057,-0.1148,-0.1263,-0.1362,-0.1465,-0.1531,-0.1556,-0.1563,-0.1444,-0.1278,-0.0981,-0.0431,0.0181,0.04,0.0837,0.0797,0.0961,0.1014,0.1039,0.112,0.0613,0.0797,0.0797,0.0796,0.0796,0.0796,0,-0.1056,-0.1125,-0.124,-0.1386,-0.1509,-0.1532,-0.1624,-0.1655,-0.1643,-0.1429,-0.1244,-0.0618,-0.0073,0.043,0.1035,0.1279,0.1333,0.1397,0.1458,0.1512,0.109,0.1074,0.1311,0.1311,0.1311,0.1311,0.131,0.131,-0.1093,-0.1205,-0.1266,-0.1478,-0.1576,-0.1713,-0.1753,-0.1746,-0.1618,-0.1245,-0.0859,-0.0539,0.015,0.1088,0.1641,0.1696,0.1909,0.189,0.201,0.1717,0.168,0.1645,0.1647,0.2,0.2001,0.2418,0.2422,0.2425]}],[{"header":{"parameterUnit":"m.s-1","parameterCategory":2,"la1":30.2991,"la2":30.254,"lo1":-89.0895,"lo2":-89.0444,"dy":0.0017,"dx":0.0017,"nx":28,"ny":28,"refTime":"2024-02-06T03:00:00:Z","depth":"2","parameterNumber":2,"parameterNumberName":"U-component_of_CURRENTS"},"data":[0,0,0,0,0,0,0,0,0,0,0,0,0,0,0,0,0,0,0,0,0,0,0,0,0,0,0,0,0,0,0,0,0,0,0,0,0,0,0,0,0,0,0,0,0,0,0,0,0,0,0,0,0,0,0,0,0,0,-0.1827,-0.1827,0,-0.1862,-0.1862,-0.1863,-0.1876,-0.1875,-0.1875,-0.1875,-0.1873,-0.1873,-0.1874,0,0,0,0,0,0,0,0,0,0,0,0,0,-0.1772,-0.1773,-0.1827,-0.1827,-0.1827,-0.1862,-0.1862,-0.1863,-0.1876,-0.1875,-0.1875,-0.1875,-0.1873,-0.1873,-0.1874,0,0,0,0,0,0,0,0,0,0,0,0,0,-0.1802,-0.1773,-0.1827,-0.1837,-0.1838,-0.1861,-0.1862,-0.1863,-0.1876,-0.1875,-0.1875,-0.1875,-0.1873,-0.1873,-0.1874,-0.1884,0,0,-0.1875,-0.1875,0,0,0,0,0,0,0,0,-0.18,-0.1804,-0.1835,-0.1836,-0.1837,-0.1862,-0.1842,-0.1868,-0.1876,-0.1863,-0.1875,-0.1875,-0.1865,-0.1866,-0.1877,-0.1884,-0.1883,-0.1875,-0.1875,-0.1875,-0.1875,0,0,0,0,0,0,0,-0.1798,-0.1802,-0.1842,-0.1835,-0.1837,-0.1839,-0.1843,-0.1847,-0.1867,-0.1864,-0.1865,-0.1866,-0.1866,-0.1877,-0.1877,-0.1883,-0.1875,-0.1875,-0.1875,-0.1875,-0.1933,-0.1934,0,0,0,0,0,0,-0.1791,-0.1801,-0.1841,-0.1843,-0.1815,-0.1841,-0.1845,-0.1856,-0.1868,-0.1869,-0.1866,-0.1867,-0.1876,-0.1876,-0.1877,-0.1913,-0.1875,-0.1875,-0.1875,-0.1931,-0.1933,-0.1934,0,0,0,0,0,0,-0.179,-0.1794,-0.184,-0.182,-0.1826,-0.1842,-0.1854,-0.1857,-0.1872,-0.1869,-0.187,-0.1878,-0.1876,-0.1876,-0.1889,-0.1912,-0.1875,-0.1876,-0.193,-0.1932,-0.1934,-0.197,0,0,0,0,0,0,-0.1788,-0.1794,-0.1797,-0.182,-0.1827,-0.1855,-0.1854,-0.1858,-0.1872,-0.1873,-0.188,-0.1879,-0.1876,-0.1889,-0.1889,-0.1912,-0.1876,-0.1928,-0.1931,-0.1933,-0.1967,-0.1973,-0.1978,0,0,0,0,0,-0.1786,-0.1791,-0.1798,-0.1802,-0.1832,-0.1855,-0.1859,-0.1869,-0.1873,-0.1881,-0.189,-0.1879,-0.1905,-0.189,-0.189,-0.1913,-0.1927,-0.193,-0.1933,-0.1965,-0.1972,-0.1978,0,0,0,0,0,0,-0.1766,-0.1794,-0.1801,-0.1814,-0.1833,-0.1856,-0.1864,-0.1874,-0.189,-0.1892,-0.1891,-0.1891,-0.1913,-0.191,-0.1892,-0.1939,-0.1917,-0.192,-0.1941,-0.1948,-0.1953,-0.1963,-0.1876,0,0,0,0,0,-0.1764,-0.1776,-0.1803,-0.1811,-0.1825,-0.1847,-0.1857,-0.1869,-0.1885,-0.1893,-0.19,-0.1911,-0.1926,-0.1933,-0.1942,-0.1963,-0.1962,-0.1981,-0.1987,-0.1991,-0.2001,-0.202,-0.2028,-0.1944,-0.1944,-0.1944,0,0,-0.1759,-0.1773,-0.178,-0.1807,-0.1826,-0.1852,-0.1853,-0.1875,-0.1898,-0.1889,-0.192,-0.1927,-0.1936,-0.1963,-0.1973,-0.1962,-0.2015,-0.1995,-0.1999,-0.2006,-0.2024,-0.2032,-0.2039,-0.1946,-0.1946,-0.1946,0,0,-0.1756,-0.177,-0.1785,-0.1803,-0.1831,-0.1852,-0.186,-0.1893,-0.1911,-0.1939,-0.1944,-0.197,-0.1985,-0.2006,-0.2016,-0.2059,-0.2041,-0.2058,-0.2095,-0.2113,-0.212,-0.2126,-0.2131,-0.2137,-0.2063,-0.2063,-0.2063,0,-0.1747,-0.177,-0.179,-0.181,-0.1827,-0.1855,-0.188,-0.1906,-0.1937,-0.1965,-0.1952,-0.201,-0.2012,-0.2062,-0.2076,-0.2073,-0.207,-0.2066,-0.2119,-0.2125,-0.2131,-0.2134,-0.2141,-0.2065,-0.2065,-0.2064,-0.2064,0,-0.1757,-0.1778,-0.1789,-0.1827,-0.1851,-0.1873,-0.1915,-0.1946,-0.1971,-0.2003,-0.2056,-0.2066,-0.2105,-0.211,-0.2103,-0.2153,-0.2133,-0.212,-0.2099,-0.2141,-0.2142,-0.2148,-0.2068,-0.2067,-0.2066,-0.2066,0,0,-0.1727,-0.1786,-0.1787,-0.1812,-0.1862,-0.1883,-0.1935,-0.1996,-0.205,-0.2074,-0.2134,-0.2164,-0.2181,-0.2194,-0.2194,-0.2209,-0.224,-0.218,-0.218,-0.2179,-0.2268,-0.2171,-0.2167,-0.2229,-0.223,-0.2232,-0.2251,0,-0.1729,-0.1765,-0.1798,-0.1841,-0.187,-0.1918,-0.1975,-0.2034,-0.2088,-0.2154,-0.2182,-0.2236,-0.221,-0.2234,-0.2246,-0.224,-0.2258,-0.2236,-0.2233,-0.2233,-0.2137,-0.2172,-0.198,-0.1973,-0.2257,-0.2257,-0.2258,0,-0.1727,-0.1752,-0.1792,-0.1869,-0.1889,-0.1927,-0.2026,-0.2081,-0.2186,-0.2225,-0.2282,-0.231,-0.2347,-0.2314,-0.233,-0.2311,-0.23,-0.2289,-0.2289,-0.2191,-0.2147,-0.1979,-0.1973,-0.2268,-0.2267,-0.2266,-0.2266,0,-0.169,-0.1751,-0.178,-0.1798,-0.1889,-0.1931,-0.1996,-0.211,-0.2176,-0.2277,-0.2313,-0.2376,-0.2382,-0.2393,-0.2364,-0.2353,-0.2366,-0.2351,-0.2259,-0.2251,-0.2084,-0.2059,-0.2377,-0.2377,-0.2377,-0.2377,-0.2377,0,-0.1672,-0.1694,-0.1769,-0.178,-0.1851,-0.1924,-0.2027,-0.2099,-0.2216,-0.2277,-0.2345,-0.237,-0.2397,-0.2404,-0.2392,-0.2329,-0.2389,-0.2272,-0.2253,-0.209,-0.2067,-0.2319,-0.2313,-0.2377,-0.2377,-0.2377,-0.2377,0,-0.162,-0.1665,-0.1707,-0.1797,-0.1835,-0.1888,-0.2035,-0.2104,-0.2208,-0.2278,-0.2303,-0.2366,-0.2355,-0.2378,-0.2384,-0.2334,-0.2316,-0.2285,-0.2083,-0.2039,-0.2186,-0.2181,-0.2192,-0.2189,-0.2186,-0.2184,-0.2182,0,-0.1598,-0.161,-0.1699,-0.1747,-0.179,-0.1889,-0.1957,-0.2084,-0.2141,-0.225,-0.2251,-0.2292,-0.2272,-0.2251,-0.2194,-0.2166,-0.2248,-0.1971,-0.192,-0.2188,-0.2169,-0.2169,-0.2167,-0.1716,-0.1711,-0.1706,-0.1703,0,-0.1557,-0.1586,-0.1631,-0.1718,-0.1784,-0.1846,-0.1941,-0.1968,-0.208,-0.2113,-0.2125,-0.2133,-0.2109,-0.1973,-0.1942,-0.1902,-0.1961,-0.1875,-0.2215,-0.1787,-0.1739,-0.1721,-0.1736,-0.1662,-0.1666,-0.1669,-0.1671,-0.1673,-0.1535,-0.1572,-0.1637,-0.1702,-0.1772,-0.1774,-0.176,-0.1824,-0.1846,-0.1838,-0.1926,-0.1857,-0.1858,-0.1694,-0.1619,-0.156,-0.1705,-0.1624,-0.1638,-0.1658,-0.1593,-0.1542,-0.1417,-0.1419,-0.1421,-0.1423,-0.1425,0,-0.1513,-0.1563,-0.1627,-0.1686,-0.1689,-0.1737,-0.1724,-0.1658,-0.1586,-0.1614,-0.1602,-0.1438,-0.1344,-0.1368,-0.1202,-0.1176,-0.1171,-0.1129,-0.1118,-0.1158,-0.1193,-0.1107,-0.08,-0.0798,-0.0797,-0.0795,0,0,-0.1521,-0.1563,-0.1585,-0.1575,-0.1601,-0.1516,-0.145,-0.1342,-0.1303,-0.1204,-0.1167,-0.1266,-0.131,-0.105,-0.0992,-0.0867,-0.1005,-0.082,-0.1318,-0.1343,-0.1377,-0.1472,-0.1381,0,0,0,0,0]},{"header":{"parameterUnit":"m.s-1","parameterCategory":2,"la1":30.2991,"la2":30.254,"lo1":-89.0895,"lo2":-89.0444,"dy":0.0017,"dx":0.0017,"nx":28,"ny":28,"refTime":"2024-02-06T03:00:00:Z","depth":"2","parameterNumber":3,"parameterNumberName":"V-component_of_CURRENTS"},"data":[0,0,0,0,0,0,0,0,0,0,0,0,0,0,0,0,0,0,0,0,0,0,0,0,0,0,0,0,0,0,0,0,0,0,0,0,0,0,0,0,0,0,0,0,0,0,0,0,0,0,0,0,0,0,0,0,0,0,0.0061,0.0062,0,0.0141,0.0142,0.0142,0.0188,0.0188,0.0188,0.0189,0.0301,0.0303,0.0306,0,0,0,0,0,0,0,0,0,0,0,0,0,-0.0009,-0.0008,0.0061,0.0062,0.0063,0.0141,0.0142,0.0143,0.0188,0.0188,0.0188,0.0189,0.03,0.0303,0.0306,0,0,0,0,0,0,0,0,0,0,0,0,0,0.004,-0.0008,0.0061,0.0095,0.0099,0.014,0.0142,0.0143,0.0188,0.0188,0.0189,0.0189,0.0298,0.0303,0.0307,0.0326,0,0,0.0319,0.0321,0,0,0,0,0,0,0,0,0.0037,0.0043,0.0089,0.0093,0.0098,0.0155,0.0158,0.0206,0.0188,0.0154,0.0189,0.0189,0.0255,0.0263,0.0276,0.0332,0.0336,0.032,0.0322,0.0324,0.0325,0,0,0,0,0,0,0,0.0034,0.004,0.0092,0.009,0.0095,0.0121,0.0128,0.0167,0.0202,0.0157,0.016,0.017,0.0257,0.0272,0.0279,0.0338,0.032,0.0323,0.0326,0.0328,0.0413,0.0413,0,0,0,0,0,0,0.0022,0.0036,0.009,0.0095,0.0068,0.0122,0.013,0.0136,0.0201,0.0211,0.017,0.0172,0.0264,0.0274,0.0283,0.0302,0.0324,0.0328,0.033,0.0414,0.0413,0.0413,0,0,0,0,0,0,0.0021,0.0026,0.0087,0.0068,0.0077,0.0123,0.0129,0.0137,0.0151,0.021,0.0221,0.0175,0.0265,0.0277,0.0313,0.0307,0.033,0.0334,0.0414,0.0414,0.0413,0.0346,0,0,0,0,0,0,0.0018,0.0025,0.0022,0.0067,0.0078,0.0104,0.0129,0.0139,0.0157,0.016,0.0218,0.0229,0.0266,0.0306,0.0317,0.0313,0.0337,0.0414,0.0414,0.0413,0.0348,0.0343,0.0339,0,0,0,0,0,0.0015,0.0011,0.0022,0.0028,0.0074,0.0104,0.0111,0.0145,0.0156,0.0158,0.0197,0.0227,0.0311,0.031,0.0322,0.032,0.0414,0.0414,0.0413,0.035,0.0344,0.0339,0,0,0,0,0,0,-0.0023,0.0017,0.0029,0.0036,0.0064,0.0111,0.0117,0.0139,0.0171,0.0174,0.0228,0.0241,0.0269,0.0304,0.0301,0.0343,0.0367,0.0369,0.0314,0.0309,0.0304,0.0289,0.034,0,0,0,0,0,-0.0034,-0.0025,0.0015,0.0019,0.003,0.0071,0.0086,0.0108,0.0145,0.0159,0.0199,0.0241,0.0277,0.0299,0.0336,0.0362,0.0391,0.0368,0.0363,0.0359,0.0354,0.039,0.0388,0.0411,0.0411,0.0411,0,0,-0.0049,-0.0025,-0.0021,0.0011,0.0035,0.0046,0.008,0.0099,0.0109,0.0167,0.0188,0.0226,0.0279,0.0305,0.0321,0.0335,0.0366,0.0358,0.0354,0.0352,0.039,0.0387,0.0385,0.0411,0.0411,0.0411,0,0,-0.0073,-0.0055,-0.0055,-0.0035,-0.0002,0.0023,0.0025,0.0067,0.0086,0.0112,0.0153,0.0185,0.0242,0.0277,0.0304,0.0296,0.0337,0.0306,0.0274,0.0308,0.0306,0.0305,0.033,0.0332,0.0306,0.0306,0.0306,0,-0.0094,-0.0085,-0.0052,-0.0046,-0.0035,0.0008,0.0007,0.0034,0.0081,0.0089,0.011,0.0182,0.0229,0.0261,0.026,0.0285,0.0307,0.0289,0.0301,0.0301,0.0301,0.0327,0.0329,0.0303,0.0303,0.0303,0.0304,0,-0.0112,-0.0108,-0.0108,-0.0087,-0.0074,-0.0066,-0.0028,-0.0019,0.0007,0.0035,0.0066,0.013,0.0169,0.0191,0.0227,0.0248,0.0263,0.0287,0.0312,0.0294,0.0323,0.0327,0.0298,0.0299,0.03,0.0301,0,0,-0.0151,-0.0126,-0.0126,-0.0122,-0.0094,-0.0081,-0.008,-0.006,-0.0069,-0.0013,-0.001,0.0061,0.0088,0.012,0.0169,0.0207,0.0229,0.0242,0.0245,0.0259,0.0295,0.0323,0.0331,0.0252,0.0253,0.0253,0.0312,0,-0.0175,-0.0176,-0.0157,-0.0162,-0.016,-0.0133,-0.0141,-0.0121,-0.0102,-0.009,-0.0018,0.0005,0.0065,0.0077,0.0125,0.0204,0.0237,0.021,0.0317,0.032,0.0342,0.0336,0.0305,0.0357,0.0316,0.0317,0.0318,0,-0.02,-0.0194,-0.0207,-0.0203,-0.0202,-0.0211,-0.0222,-0.0217,-0.0197,-0.0179,-0.0142,-0.0094,-0.0025,0.0023,0.0147,0.0125,0.0199,0.0264,0.0268,0.0321,0.0356,0.0372,0.0366,0.0325,0.0324,0.0324,0.0323,0,-0.0236,-0.0229,-0.0241,-0.0236,-0.0229,-0.0249,-0.0254,-0.0258,-0.0274,-0.0241,-0.0245,-0.016,-0.0116,-0.0011,0.0125,0.0131,0.0261,0.0287,0.038,0.0383,0.0392,0.0395,0.0363,0.0363,0.0363,0.0362,0.0362,0,-0.0264,-0.027,-0.0265,-0.0267,-0.0306,-0.0291,-0.0348,-0.0338,-0.0355,-0.0379,-0.0294,-0.0284,-0.0122,-0.0029,0.0095,0.0252,0.0239,0.0373,0.0402,0.0368,0.0368,0.0371,0.0371,0.0365,0.0364,0.0364,0.0363,0,-0.0296,-0.029,-0.03,-0.0306,-0.0324,-0.0351,-0.0415,-0.0459,-0.0451,-0.0478,-0.047,-0.0377,-0.0245,-0.0084,0.0092,0.0212,0.0356,0.0411,0.0358,0.038,0.046,0.0456,0.0517,0.0519,0.052,0.0521,0.0522,0,-0.0313,-0.0322,-0.0335,-0.0376,-0.0388,-0.0442,-0.0502,-0.051,-0.0553,-0.0536,-0.0544,-0.0436,-0.0347,-0.0071,0.0145,0.0363,0.0378,0.0465,0.048,0.0454,0.0476,0.047,0.0465,0.0462,0.0462,0.0462,0.0462,0,-0.0338,-0.0341,-0.0359,-0.0446,-0.0508,-0.0568,-0.0639,-0.0678,-0.0685,-0.0688,-0.0656,-0.0585,-0.0317,-0.0075,0.0215,0.034,0.0431,0.0479,0.0467,0.0429,0.0407,0.0427,0.0423,0.0465,0.0465,0.0464,0.0464,0.0464,-0.0373,-0.0399,-0.0444,-0.0525,-0.0624,-0.0705,-0.0742,-0.0792,-0.0834,-0.0815,-0.0731,-0.0586,-0.0344,0.0068,0.0277,0.0478,0.0474,0.0539,0.0535,0.0532,0.0517,0.0499,0.057,0.0571,0.0571,0.0571,0.0572,0,-0.0416,-0.0464,-0.0533,-0.0634,-0.0756,-0.0793,-0.0853,-0.0868,-0.0898,-0.083,-0.0763,-0.0496,-0.0211,0.0048,0.0369,0.056,0.0545,0.0591,0.0538,0.0534,0.0531,0.0515,0.0568,0.0569,0.057,0.057,0,0,-0.0447,-0.0507,-0.0527,-0.072,-0.0844,-0.0983,-0.1011,-0.0978,-0.0911,-0.0845,-0.0723,-0.0536,-0.021,0.0021,0.0256,0.0427,0.0431,0.0438,0.0419,0.0324,0.0319,0.0476,0.0444,0,0,0,0,0]}],[{"header":{"parameterUnit":"m.s-1","parameterCategory":2,"la1":30.2991,"la2":30.254,"lo1":-89.0895,"lo2":-89.0444,"dy":0.0017,"dx":0.0017,"nx":28,"ny":28,"refTime":"2024-02-06T03:00:00:Z","depth":"4","parameterNumber":2,"parameterNumberName":"U-component_of_CURRENTS"},"data":[0,0,0,0,0,0,0,0,0,0,0,0,0,0,0,0,0,0,0,0,0,0,0,0,0,0,0,0,0,0,0,0,0,0,0,0,0,0,0,0,0,0,0,0,0,0,0,0,0,0,0,0,0,0,0,0,0,0,-0.1206,-0.1206,0,-0.126,-0.1261,-0.1261,-0.1296,-0.1297,-0.1297,-0.1297,-0.1348,-0.1348,-0.1349,0,0,0,0,0,0,0,0,0,0,0,0,0,-0.1135,-0.1136,-0.1206,-0.1206,-0.1207,-0.126,-0.1261,-0.1262,-0.1296,-0.1297,-0.1297,-0.1298,-0.1347,-0.1348,-0.135,0,0,0,0,0,0,0,0,0,0,0,0,0,-0.1174,-0.1136,-0.1205,-0.1232,-0.1235,-0.126,-0.1261,-0.1262,-0.1296,-0.1297,-0.1297,-0.1298,-0.1347,-0.1348,-0.135,-0.1348,0,0,-0.1354,-0.1355,0,0,0,0,0,0,0,0,-0.1172,-0.1176,-0.1227,-0.123,-0.1234,-0.1274,-0.1255,-0.1291,-0.1296,-0.1271,-0.1297,-0.1298,-0.1323,-0.1326,-0.1333,-0.1351,-0.1353,-0.1354,-0.1355,-0.1356,-0.1356,0,0,0,0,0,0,0,-0.1169,-0.1174,-0.1226,-0.1228,-0.1232,-0.1243,-0.1249,-0.1262,-0.1292,-0.1274,-0.1277,-0.1285,-0.1325,-0.1332,-0.1335,-0.1354,-0.1354,-0.1356,-0.1357,-0.1357,-0.144,-0.1442,0,0,0,0,0,0,-0.1165,-0.1172,-0.1224,-0.1228,-0.1205,-0.1244,-0.125,-0.1259,-0.1292,-0.1298,-0.1285,-0.1287,-0.1329,-0.1333,-0.1337,-0.1398,-0.1356,-0.1357,-0.1358,-0.1439,-0.1441,-0.1442,0,0,0,0,0,0,-0.1163,-0.1169,-0.1222,-0.1202,-0.121,-0.1245,-0.1254,-0.126,-0.1289,-0.1301,-0.1307,-0.1311,-0.133,-0.1335,-0.1372,-0.1398,-0.1358,-0.1359,-0.1438,-0.144,-0.1441,-0.1481,0,0,0,0,0,0,-0.1161,-0.1168,-0.1184,-0.1202,-0.1211,-0.1251,-0.1254,-0.1261,-0.1293,-0.1297,-0.1325,-0.1329,-0.133,-0.137,-0.1373,-0.1399,-0.1361,-0.1436,-0.1438,-0.1441,-0.1478,-0.1484,-0.1489,0,0,0,0,0,-0.1158,-0.1174,-0.1184,-0.1192,-0.1228,-0.1252,-0.1258,-0.1283,-0.1294,-0.1311,-0.1334,-0.1329,-0.1388,-0.1372,-0.1376,-0.1403,-0.1435,-0.1438,-0.1441,-0.1475,-0.1483,-0.1489,0,0,0,0,0,0,-0.1152,-0.1179,-0.1191,-0.1216,-0.124,-0.1259,-0.1279,-0.1295,-0.1327,-0.1337,-0.1345,-0.1351,-0.1392,-0.1393,-0.1376,-0.1435,-0.1411,-0.1415,-0.1436,-0.1443,-0.1448,-0.1443,-0.1362,0,0,0,0,0,-0.1158,-0.1176,-0.1203,-0.1223,-0.1237,-0.1262,-0.128,-0.1298,-0.1323,-0.1338,-0.1359,-0.1382,-0.1403,-0.1421,-0.1436,-0.1469,-0.1474,-0.149,-0.1496,-0.15,-0.15,-0.1537,-0.1546,-0.1452,-0.1452,-0.1452,0,0,-0.1161,-0.1179,-0.119,-0.1224,-0.1243,-0.1269,-0.1275,-0.1307,-0.1336,-0.1338,-0.1387,-0.1402,-0.1416,-0.1453,-0.1472,-0.1461,-0.1531,-0.1504,-0.1508,-0.1504,-0.1541,-0.155,-0.1559,-0.1454,-0.1453,-0.1453,0,0,-0.1167,-0.1193,-0.1209,-0.1233,-0.127,-0.1288,-0.1302,-0.1337,-0.1364,-0.1406,-0.1416,-0.1452,-0.1483,-0.1503,-0.1514,-0.1561,-0.1557,-0.1567,-0.1594,-0.1632,-0.1639,-0.1646,-0.1665,-0.1674,-0.1572,-0.1572,-0.1573,0,-0.1174,-0.1195,-0.1219,-0.1241,-0.1264,-0.1298,-0.1323,-0.1354,-0.1401,-0.1426,-0.1429,-0.1492,-0.1508,-0.1553,-0.1569,-0.1575,-0.1585,-0.1566,-0.1639,-0.1645,-0.1652,-0.167,-0.1678,-0.1575,-0.1574,-0.1574,-0.1574,0,-0.1184,-0.1213,-0.1225,-0.1265,-0.1294,-0.1322,-0.1365,-0.1406,-0.144,-0.1469,-0.1527,-0.1551,-0.1587,-0.1601,-0.1598,-0.1654,-0.1643,-0.1639,-0.1619,-0.1664,-0.168,-0.1688,-0.1578,-0.1577,-0.1576,-0.1576,0,0,-0.1167,-0.1223,-0.123,-0.1255,-0.1311,-0.1335,-0.1389,-0.1444,-0.1485,-0.1534,-0.1586,-0.1627,-0.1643,-0.1656,-0.1666,-0.1699,-0.1756,-0.1688,-0.1689,-0.1703,-0.1828,-0.1671,-0.1665,-0.1764,-0.1766,-0.1767,-0.182,0,-0.117,-0.1211,-0.1242,-0.1292,-0.1317,-0.1369,-0.1415,-0.1473,-0.1522,-0.1584,-0.1626,-0.167,-0.1663,-0.1683,-0.1719,-0.1751,-0.178,-0.1741,-0.1786,-0.1787,-0.1639,-0.167,-0.1772,-0.1826,-0.1828,-0.183,-0.1831,0,-0.1165,-0.1196,-0.1239,-0.1307,-0.1325,-0.1363,-0.1443,-0.1489,-0.1577,-0.1616,-0.1672,-0.1702,-0.1765,-0.1748,-0.1825,-0.18,-0.1814,-0.1832,-0.1834,-0.1677,-0.1645,-0.1773,-0.1845,-0.1844,-0.1843,-0.1842,-0.1841,0,-0.1126,-0.1194,-0.1228,-0.1252,-0.1332,-0.1369,-0.1416,-0.1499,-0.1538,-0.1635,-0.1676,-0.175,-0.1794,-0.1833,-0.1861,-0.1852,-0.1934,-0.1929,-0.1801,-0.179,-0.1899,-0.1891,-0.1974,-0.1974,-0.1974,-0.1974,-0.1974,0,-0.1105,-0.1139,-0.1217,-0.1236,-0.1284,-0.1351,-0.1404,-0.1468,-0.1551,-0.1595,-0.1684,-0.1723,-0.1818,-0.1869,-0.1885,-0.1858,-0.1955,-0.1802,-0.1792,-0.1914,-0.1907,-0.1904,-0.1896,-0.1976,-0.1976,-0.1975,-0.1975,0,-0.1054,-0.1106,-0.1149,-0.1236,-0.1263,-0.1297,-0.1377,-0.1414,-0.1508,-0.1571,-0.16,-0.1724,-0.1778,-0.1844,-0.1914,-0.1869,-0.187,-0.1834,-0.1955,-0.1953,-0.17,-0.1693,-0.1701,-0.1696,-0.1692,-0.1688,-0.1685,0,-0.1027,-0.1043,-0.1129,-0.1147,-0.1186,-0.1241,-0.1273,-0.1373,-0.1406,-0.1547,-0.1569,-0.1665,-0.1725,-0.1713,-0.1788,-0.1799,-0.1775,-0.1768,-0.173,-0.1681,-0.1672,-0.1672,-0.1671,-0.1678,-0.1677,-0.1676,-0.1675,0,-0.097,-0.1008,-0.1045,-0.1074,-0.1111,-0.1145,-0.1201,-0.1214,-0.1328,-0.1437,-0.1484,-0.1516,-0.1577,-0.1621,-0.1633,-0.1642,-0.1771,-0.1723,-0.1732,-0.1695,-0.1654,-0.1649,-0.1653,-0.166,-0.1662,-0.1663,-0.1664,0,-0.0924,-0.093,-0.0968,-0.0989,-0.1027,-0.1031,-0.1075,-0.1115,-0.116,-0.132,-0.133,-0.1446,-0.1555,-0.1538,-0.1555,-0.154,-0.1518,-0.1474,-0.1496,-0.1513,-0.1423,-0.1341,-0.1239,0,0,0,0,0,-0.0868,-0.0863,-0.0875,-0.0886,-0.0918,-0.0937,-0.1019,-0.1069,-0.1187,-0.1178,-0.1245,-0.1287,-0.1318,-0.1383,-0.1329,-0.1462,-0.1519,-0.1392,-0.1479,-0.1576,-0.1594,-0.1503,0,0,0,0,0,0,-0.0827,-0.084,-0.0843,-0.079,-0.0776,-0.0797,-0.0844,-0.0929,-0.0929,-0.1062,-0.1087,-0.1188,-0.124,-0.1321,-0.1295,-0.131,-0.1333,-0.1461,-0.1457,-0.1567,-0.1582,-0.1596,-0.1509,0,0,0,0,0]},{"header":{"parameterUnit":"m.s-1","parameterCategory":2,"la1":30.2991,"la2":30.254,"lo1":-89.0895,"lo2":-89.0444,"dy":0.0017,"dx":0.0017,"nx":28,"ny":28,"refTime":"2024-02-06T03:00:00:Z","depth":"4","parameterNumber":3,"parameterNumberName":"V-component_of_CURRENTS"},"data":[0,0,0,0,0,0,0,0,0,0,0,0,0,0,0,0,0,0,0,0,0,0,0,0,0,0,0,0,0,0,0,0,0,0,0,0,0,0,0,0,0,0,0,0,0,0,0,0,0,0,0,0,0,0,0,0,0,0,0.0062,0.0063,0,0.0112,0.0112,0.0113,0.0153,0.0153,0.0153,0.0154,0.0235,0.0237,0.0239,0,0,0,0,0,0,0,0,0,0,0,0,0,0.0031,0.0032,0.0062,0.0063,0.0063,0.0112,0.0112,0.0113,0.0153,0.0153,0.0153,0.0154,0.0235,0.0237,0.0239,0,0,0,0,0,0,0,0,0,0,0,0,0,0.006,0.0032,0.0062,0.0089,0.0091,0.0112,0.0112,0.0113,0.0152,0.0153,0.0154,0.0154,0.0234,0.0237,0.024,0.0246,0,0,0.0248,0.0249,0,0,0,0,0,0,0,0,0.0058,0.0061,0.0084,0.0087,0.009,0.0126,0.0132,0.0159,0.0152,0.013,0.0154,0.0154,0.0201,0.0207,0.0215,0.025,0.0253,0.0248,0.025,0.0251,0.0252,0,0,0,0,0,0,0,0.0056,0.0059,0.0082,0.0085,0.0088,0.0108,0.0112,0.0137,0.0163,0.0132,0.0135,0.0139,0.0203,0.0212,0.0217,0.0254,0.0248,0.0251,0.0252,0.0253,0.0316,0.0316,0,0,0,0,0,0,0.0047,0.0057,0.0081,0.0084,0.0074,0.0108,0.0113,0.0114,0.0162,0.0169,0.0139,0.0141,0.0207,0.0214,0.022,0.0241,0.0251,0.0254,0.0255,0.0316,0.0316,0.0316,0,0,0,0,0,0,0.0046,0.0048,0.0079,0.0071,0.0077,0.0108,0.0109,0.0115,0.0128,0.0167,0.0175,0.0146,0.0208,0.0216,0.0244,0.0244,0.0255,0.0257,0.0316,0.0316,0.0316,0.0276,0,0,0,0,0,0,0.0045,0.0047,0.0045,0.0071,0.0077,0.0089,0.0109,0.0116,0.0129,0.0133,0.0175,0.0183,0.0209,0.0239,0.0246,0.0248,0.026,0.0316,0.0316,0.0316,0.0277,0.0275,0.0272,0,0,0,0,0,0.0043,0.0038,0.0044,0.0047,0.0072,0.0088,0.0093,0.0118,0.0129,0.0132,0.0162,0.0182,0.0244,0.0241,0.025,0.0252,0.0316,0.0316,0.0316,0.0278,0.0275,0.0272,0,0,0,0,0,0,0.0023,0.0042,0.005,0.005,0.0066,0.0095,0.0098,0.0115,0.014,0.0145,0.0182,0.0192,0.0215,0.0239,0.0235,0.027,0.0283,0.0285,0.0252,0.0249,0.0247,0.0235,0.0262,0,0,0,0,0,0.0016,0.0018,0.0039,0.0039,0.0044,0.007,0.008,0.0096,0.0121,0.0133,0.0163,0.0195,0.0221,0.0239,0.0264,0.0284,0.03,0.0291,0.0289,0.0286,0.0283,0.0303,0.0302,0.0316,0.0316,0.0316,0,0,0.0008,0.0019,0.002,0.0035,0.0049,0.0056,0.0077,0.0089,0.01,0.0138,0.0161,0.0186,0.0223,0.0245,0.0258,0.0266,0.0291,0.0286,0.0284,0.0282,0.0303,0.0301,0.03,0.0316,0.0316,0.0316,0,0,-0.0006,0.0001,-0.0001,0.001,0.0028,0.0044,0.0045,0.0072,0.0088,0.011,0.0139,0.0163,0.0205,0.0231,0.0249,0.0248,0.0274,0.0258,0.0241,0.026,0.0259,0.0258,0.0274,0.0275,0.026,0.026,0.026,0,-0.0016,-0.0014,0.0001,0.0003,0.0011,0.0036,0.0038,0.0055,0.009,0.0096,0.0113,0.0163,0.0198,0.0221,0.0226,0.0243,0.0256,0.0248,0.0256,0.0255,0.0255,0.0272,0.0273,0.0258,0.0258,0.0259,0.0259,0,-0.0028,-0.0025,-0.0026,-0.0015,-0.0007,-0.0001,0.0022,0.003,0.005,0.0069,0.0092,0.0135,0.0163,0.018,0.0207,0.0223,0.0233,0.0246,0.026,0.0251,0.027,0.0272,0.0255,0.0256,0.0257,0.0257,0,0,-0.0051,-0.0038,-0.0037,-0.0036,-0.0014,-0.0011,-0.0002,0.0011,0.0004,0.0044,0.0044,0.0099,0.0115,0.0137,0.017,0.0195,0.0212,0.022,0.0222,0.023,0.0251,0.0245,0.0247,0.0226,0.0226,0.0226,0.0263,0,-0.0063,-0.0062,-0.0053,-0.0054,-0.005,-0.0035,-0.0035,-0.0022,-0.0009,-0.0007,0.0039,0.0053,0.0101,0.0108,0.0142,0.019,0.0217,0.0201,0.0264,0.0266,0.0257,0.0249,0.0227,0.0265,0.0266,0.0266,0.0266,0,-0.0077,-0.007,-0.0072,-0.0074,-0.0075,-0.0076,-0.0084,-0.008,-0.0072,-0.0064,-0.0043,-0.0016,0.0029,0.0066,0.0148,0.0135,0.019,0.0232,0.0235,0.0244,0.0264,0.0278,0.0271,0.027,0.027,0.027,0.027,0,-0.0091,-0.0089,-0.009,-0.0086,-0.0083,-0.0091,-0.0095,-0.0097,-0.0111,-0.0103,-0.012,-0.0063,-0.0047,0.0033,0.0127,0.0136,0.0212,0.0233,0.028,0.0281,0.0293,0.0293,0.0289,0.0289,0.0289,0.0288,0.0288,0,-0.0101,-0.0105,-0.0099,-0.0097,-0.0117,-0.011,-0.0144,-0.0144,-0.0163,-0.0196,-0.015,-0.0165,-0.0055,-0.0,0.01,0.0193,0.0194,0.0273,0.0288,0.0275,0.0274,0.0294,0.0295,0.029,0.029,0.0289,0.0289,0,-0.0112,-0.0108,-0.0109,-0.011,-0.0121,-0.0131,-0.0176,-0.0212,-0.022,-0.0264,-0.0266,-0.0239,-0.017,-0.0058,0.0064,0.0143,0.0244,0.0279,0.0249,0.0263,0.0307,0.0304,0.0329,0.0329,0.0329,0.0329,0.0329,0,-0.0116,-0.0114,-0.0118,-0.0132,-0.0134,-0.0163,-0.0203,-0.0229,-0.0272,-0.0313,-0.0339,-0.0299,-0.0264,-0.0103,0.0027,0.0205,0.0238,0.0288,0.0309,0.0297,0.031,0.0308,0.0306,0.0329,0.0329,0.0329,0.0329,0,-0.0111,-0.0111,-0.0106,-0.0132,-0.0167,-0.0228,-0.028,-0.0323,-0.0371,-0.0383,-0.0405,-0.0334,-0.0265,-0.0123,0.0012,0.0146,0.0255,0.0289,0.029,0.0311,0.0298,0.031,0.0308,0.0329,0.0329,0.0329,0.0329,0,-0.0102,-0.0096,-0.0092,-0.0119,-0.0178,-0.0268,-0.0308,-0.0366,-0.0407,-0.0451,-0.0458,-0.0379,-0.0331,-0.0155,-0.0028,0.0098,0.0138,0.0188,0.0196,0.0197,0.0155,0.0119,0.0103,0,0,0,0,0,-0.0081,-0.0069,-0.0089,-0.0123,-0.0196,-0.0238,-0.0348,-0.0393,-0.0452,-0.0472,-0.0465,-0.0397,-0.0239,-0.0173,-0.0048,-0.0012,0.0169,0.014,0.0233,0.033,0.033,0.0304,0,0,0,0,0,0,-0.0062,-0.0059,-0.0065,-0.0127,-0.0166,-0.0261,-0.0342,-0.0398,-0.0411,-0.0446,-0.0362,-0.0336,-0.0175,-0.0287,-0.0026,0.0007,0.0086,0.0215,0.0218,0.033,0.033,0.033,0.0303,0,0,0,0,0]}]]